Theta_e
304 306 308 304 303 305 307 308 307 307 308 302 304 307 305 305 304 304 303 303 302 302 302 303 303 303 305 305 306 308 309 310 313 314 317 316 317 320 320 320 323 320 322 323 323 324 324
303 303 306 304 303 302 307 307 308 307 307 304 303 302 300 300 304 304 302 302 302 302 302 301 302 303 304 306 306 309 311 311 311 317 316 316 317 320 320 320 321 322 320 321 322 323 324
303 304 303 303 303 301 302 306 306 307 306 308 301 302 302 300 298 302 302 302 302 302 302 301 300 304 305 303 307 305 311 312 312 317 317 316 316 319 319 318 319 320 321 319 318 320 319
303 303 302 302 304 303 302 302 304 306 306 306 305 300 302 302 300 299 302 302 300 301 300 299 301 303 303 305 304 305 307 312 314 316 317 317 315 318 318 319 318 317 317 320 318 318 319
302 302 302 301 303 303 304 303 301 302 305 305 302 300 300 300 301 301 300 300 300 300 299 301 303 304 303 304 306 304 306 306 313 315 317 316 317 316 317 316 317 317 318 319 319 318 318
302 302 302 301 302 303 303 305 304 302 299 302 303 301 300 300 301 301 302 303 304 303 301 303 304 304 304 304 306 305 304 306 313 314 317 317 317 316 315 318 320 319 317 318 319 318 318
302 303 302 302 302 302 301 302 303 306 301 295 301 303 300 301 301 301 303 303 304 304 304 304 303 303 303 302 307 305 305 307 312 314 315 317 317 318 316 315 315 316 315 317 317 316 318
301 304 302 302 301 302 302 301 303 302 302 302 295 297 303 301 301 303 301 299 302 301 303 304 304 303 304 305 308 307 305 308 309 315 311 317 318 314 315 316 315 316 316 315 315 316 317
302 304 302 302 302 302 302 302 302 303 300 300 300 295 303 302 303 302 303 301 302 304 304 306 307 307 307 308 309 309 310 308 311 312 312 317 316 315 316 316 316 315 314 313 315 315 314
302 304 302 301 302 302 302 302 302 301 299 298 300 296 303 304 304 303 304 302 302 303 306 310 309 308 309 309 310 308 310 312 311 315 313 317 315 316 316 316 314 315 311 312 314 315 317
302 303 302 301 301 303 303 302 302 301 300 299 300 296 304 303 303 304 305 302 302 305 310 309 310 308 308 310 309 312 311 313 315 312 315 316 316 315 317 316 313 315 312 313 313 313 313
302 302 302 301 301 302 301 303 302 300 299 300 300 297 304 304 306 305 305 304 304 299 307 310 309 310 308 309 313 312 312 313 314 314 313 314 314 314 316 315 315 313 313 311 311 310 310
302 302 303 302 301 301 301 302 300 299 300 300 299 298 305 305 307 306 305 305 299 306 308 314 315 311 312 314 314 312 314 314 315 314 313 314 314 313 313 315 315 313 312 309 313 312 314
302 302 304 301 301 300 301 300 300 300 299 298 297 304 305 305 306 306 306 301 302 308 315 314 314 313 314 314 314 312 314 314 313 312 313 316 316 314 312 315 316 314 312 310 314 313 312
301 304 302 302 301 301 299 300 300 299 297 296 297 306 306 307 306 306 306 299 303 307 312 315 315 316 316 315 314 313 314 313 313 312 314 315 312 311 313 313 312 316 314 312 309 308 305
304 303 302 302 301 300 299 299 300 297 296 296 302 307 308 308 306 307 304 305 307 311 311 311 313 314 317 316 317 315 314 313 315 313 311 311 313 312 312 313 312 313 312 315 307 313 311
304 303 302 300 300 299 299 299 299 295 296 299 308 309 309 307 306 308 300 302 310 312 311 310 310 311 312 314 315 315 314 314 313 313 312 309 309 314 313 315 317 314 315 314 313 312 312
304 302 301 300 299 299 299 299 297 295 297 302 307 308 309 306 308 309 303 309 311 311 310 310 309 310 311 311 311 311 313 312 313 313 313 311 310 312 314 313 313 314 314 313 315 311 307
303 302 300 300 299 299 299 299 297 295 298 304 307 306 307 308 313 306 308 311 311 311 311 311 310 310 309 310 311 310 310 309 311 310 312 310 309 311 311 310 312 315 314 314 311 308 307
302 299 300 300 299 299 299 299 299 296 295 304 306 300 306 308 308 308 309 310 311 311 311 309 309 309 309 310 309 311 310 309 310 309 309 310 308 307 310 309 309 312 315 314 313 310 314
301 299 300 299 299 299 299 299 299 299 297 302 302 302 300 306 306 305 307 311 312 313 311 310 310 309 309 310 310 310 310 309 309 309 309 307 306 304 307 310 309 309 311 314 314 314 314
300 300 300 299 299 299 298 299 299 300 299 298 298 298 300 300 302 305 307 309 311 313 311 312 310 310 309 311 309 309 309 308 309 308 309 306 304 303 302 307 310 310 309 311 314 314 312
300 300 300 299 299 298 298 299 298 299 299 298 297 298 301 300 297 304 303 303 306 308 311 310 309 309 310 311 310 310 309 309 307 307 307 308 302 299 302 308 308 307 308 308 310 311 312
300 301 301 299 298 298 299 299 298 298 298 298 297 297 296 296 295 298 297 299 301 303 307 307 311 311 310 311 310 309 309 307 307 307 307 306 304 300 302 305 306 307 308 307 308 309 309
301 300 301 299 299 298 299 299 299 298 298 298 298 297 297 295 295 296 296 298 300 303 305 308 310 310 311 311 307 308 308 309 309 307 306 306 307 305 304 304 307 309 309 308 307 308 307
300 300 300 299 299 299 299 299 298 298 298 297 297 297 297 296 296 297 297 297 297 299 303 308 309 311 311 309 310 310 308 308 310 310 307 307 308 306 309 309 310 309 311 309 308 312 311
300 300 300 300 300 299 298 298 298 297 298 297 297 297 296 297 297 297 296 296 296 295 297 300 298 305 310 307 310 310 306 307 310 310 310 310 309 311 308 309 307 305 306 311 313 311 311
300 300 300 300 300 299 298 298 298 298 298 298 297 296 296 296 296 297 296 296 296 295 296 296 302 303 306 309 310 308 307 306 306 306 307 308 308 308 308 309 307 308 311 312 311 312 312
300 300 301 300 301 300 299 298 297 298 298 298 297 297 295 295 296 295 296 295 295 296 295 295 296 299 300 306 307 308 309 305 305 307 304 309 306 306 306 307 305 308 311 312 313 313 312
Wind_Speed
19 20 21 23 23 21 19 18 18 21 24 25 22 23 21 18 13 9 7 4 2 1 1 1 2 6 4 8 17 5 11 19 27 33 27 26 26 19 6 8 12 3 15 20 18 18 19
20 21 21 22 22 22 21 19 18 19 21 23 21 21 20 16 11 9 7 5 4 2 3 3 2 1 1 4 11 5 8 22 33 35 34 28 22 20 8 9 12 9 5 12 18 21 24
18 20 21 23 23 23 21 21 17 17 19 21 20 18 18 16 13 7 5 5 3 2 3 4 2 2 5 5 12 15 4 21 32 37 39 34 14 19 12 5 11 10 8 3 14 22 9
17 19 20 23 22 24 22 21 20 18 16 18 19 17 14 14 12 9 4 3 3 3 4 2 1 3 6 8 6 6 5 13 24 29 34 34 18 24 5 6 9 5 6 5 4 12 11
16 18 20 22 22 22 23 22 21 20 19 15 17 16 15 11 8 7 5 2 2 2 1 3 3 4 8 7 8 2 4 2 14 19 26 29 24 11 5 6 4 3 6 8 6 17 5
16 18 19 20 22 22 21 22 24 21 21 18 15 14 14 12 8 5 2 3 5 5 5 3 2 7 3 8 10 1 4 2 5 16 19 19 10 5 4 7 16 19 9 11 8 11 7
16 17 18 19 21 23 23 24 21 22 24 21 17 12 10 9 7 10 2 2 2 1 1 0 5 8 9 10 3 2 3 3 9 10 4 10 7 17 12 4 6 10 5 5 2 7 7
16 17 18 18 20 23 23 24 23 24 23 22 20 17 9 4 3 7 4 4 4 3 3 3 8 11 11 2 1 3 7 5 3 11 6 6 12 6 9 4 7 9 7 5 1 4 8
15 17 17 19 19 20 23 25 26 24 25 24 22 22 10 5 3 1 2 4 4 3 1 4 2 2 0 1 2 4 7 12 5 13 12 7 8 10 8 4 5 2 6 5 5 3 2
14 17 19 19 21 21 21 25 26 26 26 25 24 22 11 3 4 5 3 2 1 4 2 2 1 0 2 2 3 5 4 5 4 11 8 4 2 9 8 4 4 3 6 5 7 5 4
13 16 18 21 22 22 25 26 27 27 26 24 24 22 10 5 4 5 3 3 4 1 3 4 2 2 2 4 8 4 5 3 9 8 6 2 7 10 7 7 5 5 5 8 4 5 4
14 16 19 21 22 23 27 28 26 28 27 23 21 19 7 5 6 3 2 4 2 5 3 3 1 4 2 4 3 4 3 6 6 6 9 5 5 4 2 2 3 5 6 8 5 3 1
14 16 19 21 22 24 27 28 29 26 27 22 17 13 6 5 1 3 2 3 4 5 0 1 1 5 6 2 4 4 2 4 2 5 4 5 3 2 2 5 3 3 7 2 2 1 7
14 17 20 21 22 25 27 27 27 27 25 22 13 3 3 3 2 1 5 3 7 5 2 2 4 4 2 1 4 3 3 2 3 5 4 3 5 1 3 3 3 4 4 5 6 4 4
13 17 20 21 23 26 26 26 27 26 24 19 8 2 3 0 1 2 1 4 6 6 4 6 3 1 2 2 4 3 2 4 1 3 5 4 2 0 3 2 1 4 2 1 4 2 3
13 16 19 21 22 24 25 26 26 28 23 14 2 6 4 1 1 5 1 3 2 3 1 2 4 6 4 6 5 4 6 6 4 5 3 5 4 2 3 2 1 1 3 1 2 2 4
12 15 17 19 21 25 25 23 25 26 21 10 7 4 3 2 3 2 2 4 2 2 1 1 1 1 1 5 5 5 7 3 7 5 5 6 4 3 4 6 7 3 3 3 0 3 3
11 13 15 17 22 22 22 21 23 25 22 7 4 2 1 3 2 3 1 4 1 1 2 2 1 3 3 3 4 3 5 2 14 9 6 2 5 4 3 5 7 3 4 6 4 5 3
9 11 11 17 19 21 21 21 21 21 19 13 3 3 2 1 1 3 4 2 3 1 1 3 2 3 3 3 3 3 3 4 9 4 6 5 1 3 3 1 1 5 6 5 4 2 6
8 7 10 16 15 18 22 20 20 19 16 7 3 2 1 3 0 1 4 3 2 1 1 2 2 3 2 2 4 2 2 4 3 3 4 5 3 5 6 4 4 5 11 10 8 4 6
4 4 9 14 14 17 20 22 20 19 17 4 4 3 3 3 3 4 1 7 2 2 1 1 1 1 2 1 2 2 2 2 4 2 2 3 4 3 3 2 4 4 6 17 16 15 9
2 4 8 13 13 15 19 23 22 21 13 19 5 5 5 5 10 5 7 7 8 4 0 1 1 5 2 3 1 4 4 2 3 1 2 3 1 2 4 4 4 4 7 11 18 15 12
2 3 7 11 12 14 18 20 22 21 19 12 8 4 1 6 6 2 4 5 8 11 5 6 3 2 4 2 2 3 7 7 7 7 4 3 4 3 4 3 2 7 13 14 11 10 16
3 2 5 9 11 12 15 17 19 20 19 15 15 6 2 2 4 3 7 8 10 9 4 12 8 1 3 5 2 3 7 6 8 3 6 5 4 3 2 2 2 6 2 7 15 10 16
5 1 4 7 9 11 14 15 14 16 17 13 13 6 3 2 3 5 13 6 8 13 6 4 7 7 7 3 3 3 3 2 3 5 4 4 4 2 3 3 7 5 3 5 6 8 16
6 2 4 6 9 11 13 13 14 14 14 10 12 14 4 4 0 4 3 5 2 5 7 5 6 7 4 2 1 3 4 4 2 2 4 4 2 3 1 3 5 3 2 4 5 5 3
8 3 5 8 9 13 14 13 13 13 12 8 7 10 4 1 4 6 3 2 3 3 3 6 11 8 8 2 1 2 2 5 4 5 4 3 2 5 4 3 6 7 5 3 2 4 6
8 3 3 8 7 10 12 12 11 12 13 11 8 10 8 5 6 3 2 7 10 3 1 7 4 3 4 1 1 2 1 3 2 4 5 6 5 3 4 3 7 3 2 5 4 3 4
7 3 2 5 7 7 9 10 9 10 11 12 6 8 11 4 4 5 3 6 6 10 3 3 1 4 5 2 2 3 2 1 2 3 2 3 7 5 7 5 5 6 7 8 5 4 1
Wind_Direction
359 359 354 359 358 359 359 0 2 4 356 4 5 12 11 9 11 19 4 14 28 16 64 316 313 4 217 202 233 215 278 229 217 200 190 182 177 183 179 161 171 179 181 185 168 186 213
358 356 355 359 359 2 355 357 3 1 359 1 5 10 10 12 15 12 19 34 48 42 13 359 304 236 301 263 233 252 294 209 196 190 185 184 185 181 157 163 169 185 117 136 157 178 172
354 354 358 359 0 1 1 355 354 357 358 356 1 3 5 9 12 17 28 32 42 26 3 349 303 289 289 255 171 321 96 169 180 189 186 187 182 181 168 140 180 178 192 151 168 195 190
351 353 356 359 359 0 359 358 351 350 353 354 356 357 354 355 27 38 42 39 22 10 3 24 182 252 261 352 311 338 52 174 184 193 195 184 181 188 189 160 149 154 117 143 225 166 187
348 351 354 358 359 357 358 357 355 352 348 348 356 357 358 343 348 38 32 55 43 1 25 113 69 317 285 341 17 31 237 234 188 196 174 180 185 193 227 121 107 218 155 182 178 195 171
344 348 351 355 355 356 358 353 353 354 355 348 344 354 2 356 332 337 40 64 73 78 114 79 49 304 310 321 336 344 240 245 185 175 172 177 171 157 179 163 185 188 181 194 174 193 186
341 345 348 350 354 355 356 357 358 349 349 353 348 337 342 3 353 6 11 188 143 82 53 68 296 270 297 326 69 155 202 210 168 189 104 174 164 193 180 135 126 140 108 118 180 168 180
337 343 344 346 349 352 352 354 350 348 348 343 346 336 316 309 360 13 33 90 93 85 326 236 286 280 283 285 27 105 147 96 253 171 149 181 197 148 124 160 118 138 165 187 45 195 185
334 338 340 340 347 348 347 348 345 346 344 341 338 336 314 294 262 281 348 82 101 85 251 299 351 333 328 300 77 131 132 158 235 150 195 148 139 136 148 164 148 124 158 173 153 86 62
331 333 336 336 339 341 343 346 344 343 343 340 333 334 322 260 264 256 242 221 178 333 119 19 180 313 298 168 94 151 155 216 160 153 100 61 121 141 163 184 124 166 206 177 162 125 192
326 330 333 333 336 338 338 344 344 341 340 340 333 329 315 222 222 235 288 277 263 160 65 9 16 27 26 16 134 163 218 66 116 141 201 108 128 149 159 190 139 215 170 152 124 103 117
325 328 332 332 332 334 337 336 345 337 338 340 333 323 297 218 235 218 269 290 178 50 356 281 335 98 8 297 170 116 54 54 107 94 57 64 55 63 137 76 135 146 85 46 52 84 241
321 327 330 331 331 333 334 335 342 336 337 339 333 319 265 200 317 219 217 205 41 74 212 95 147 182 226 119 38 11 107 120 134 114 62 45 20 30 18 83 34 128 101 30 18 323 233
320 327 330 332 332 334 337 341 342 341 342 341 337 329 205 198 222 242 166 57 69 233 200 190 154 176 103 175 126 123 64 58 32 92 113 129 151 142 352 68 169 164 136 153 190 203 222
321 329 331 333 335 337 343 345 344 343 348 341 345 129 134 223 154 179 229 60 185 198 179 155 144 118 113 114 103 142 147 155 233 195 100 130 109 114 54 21 59 223 156 123 109 40 67
322 330 332 337 338 341 345 346 348 344 353 349 67 130 101 355 346 170 74 238 181 237 62 174 190 173 169 178 153 151 168 192 193 219 170 182 110 299 121 161 23 95 163 87 350 145 254
326 330 334 343 345 345 348 351 350 348 360 359 123 112 95 357 298 258 159 241 246 255 325 142 78 84 175 155 162 167 178 150 185 198 169 151 114 139 141 202 167 169 190 176 96 149 205
327 331 342 352 351 353 356 355 356 354 1 17 101 80 89 27 312 238 147 220 277 233 280 307 96 52 30 10 46 99 152 230 182 162 165 151 119 149 178 185 209 230 208 190 154 218 221
325 333 349 354 358 6 6 6 2 2 3 5 66 99 166 66 351 321 303 313 325 48 344 349 16 52 42 12 69 82 93 52 173 148 163 173 121 98 17 15 207 217 201 221 98 57 208
326 337 352 355 3 9 13 7 9 8 3 21 57 48 128 228 253 349 349 272 281 318 316 11 331 18 49 50 39 125 97 27 62 102 130 117 140 167 187 194 135 201 200 192 173 183 216
311 350 355 356 5 3 8 12 12 11 15 84 56 62 10 341 25 327 294 325 204 253 284 328 344 318 64 34 89 97 85 65 29 63 93 113 175 149 242 219 157 209 194 202 211 217 207
276 6 3 2 10 9 10 15 19 25 33 51 52 26 19 325 318 310 6 3 351 355 29 149 26 326 175 111 88 188 133 184 194 81 95 21 137 83 316 255 229 258 238 213 221 228 249
187 21 2 9 14 20 14 16 21 27 34 54 53 46 23 1 343 14 15 356 340 338 36 58 323 318 80 56 316 330 202 197 175 152 155 116 124 84 268 343 351 295 227 210 216 212 213
178 35 8 10 10 13 16 16 22 27 31 40 42 58 39 11 42 29 357 352 335 339 305 317 347 200 336 330 138 114 72 94 151 156 145 134 113 111 211 33 271 242 224 212 216 229 221
169 97 14 12 9 12 9 6 17 21 25 40 47 55 79 84 338 10 355 3 349 346 345 293 11 351 342 350 65 64 3 49 218 183 188 139 125 128 145 200 291 280 181 168 175 265 221
164 133 40 23 21 10 6 7 1 15 26 45 51 37 63 131 22 27 330 1 15 339 335 328 321 15 10 68 106 173 188 182 207 198 166 185 113 130 158 243 245 260 289 211 164 280 324
165 132 64 37 31 12 5 5 16 17 24 48 51 31 22 29 201 359 77 9 22 12 299 300 335 350 14 36 346 217 244 167 167 183 165 162 145 211 226 272 282 252 259 175 123 252 323
162 120 55 41 20 11 5 360 1 13 23 25 26 15 7 316 326 105 77 329 311 287 275 327 330 360 355 5 249 296 196 250 143 192 176 168 174 198 175 237 270 217 106 175 239 312 343
159 156 59 24 3 354 343 339 349 1 1 2 10 349 342 332 302 329 30 22 310 241 282 332 327 324 6 300 23 304 303 335 188 244 104 198 188 186 187 213 239 245 239 259 252 272 249